Regional Weather Roundup
Issued by NWS Mt. Holly, NJ

Home | Current Version | Previous Version | Text Only | Print | Product List | Glossary On
Versions: 1 2 3 4 5 6 7 8 9 10 11 12 13 14 15 16 17 18 19 20 21 22 23 24 25 26 27 28 29 30 31 32 33 34 35 36 37 38 39 40 41 42 43 44 45 46 47 48 49 50
000
ASUS41 KPHI 031112
RWRPHI

REGIONAL WEATHER ROUNDUP
NATIONAL WEATHER SERVICE MOUNT HOLLY NJ
700 AM EDT THU SEP 03 2015

NOTE:  "FAIR" INDICATES FEW OR NO CLOUDS BELOW 12,000 FEET WITH NO
SIGNIFICANT WEATHER AND/OR OBSTRUCTIONS TO VISIBILITY.

 * = STATION DOES NOT REPORT PRECIPITATION (E.G. RAIN, SNOW, ETC.)
        OR FOG.

NJZ015>026-031200-
SOUTHERN NEW JERSEY

CITY           SKY/WX    TMP DP  RH WIND       PRES   REMARKS
POMONA         CLEAR     69  66  90 NW5       29.88R FOG
WILDWOOD*      CLEAR     73  72  94 CALM      29.89S
MILLVILLE      CLEAR     68  66  93 CALM      29.89R FOG
WRIGHTSTOWN    PTCLDY    69  67  93 CALM      29.86S
MOUNT HOLLY    MOCLDY    67  66  97 CALM      29.89R FOG
TRENTON        MOCLDY    71  65  81 NW6       29.88S HAZE

$$
NJZ001>014-031200-
NORTHERN NEW JERSEY

CITY           SKY/WX    TMP DP  RH WIND       PRES   REMARKS
SUSSEX         PTCLDY    60  59  96 CALM      29.91R FOG
ANDOVER*         N/A     62  61  96 CALM      29.92R
MORRISTOWN     MOCLDY    66  66 100 E5        29.89R
NEWARK         PTCLDY    75  66  73 NW5       29.87R
TETERBORO      CLEAR     71  64  78 CALM      29.87R
CALDWELL       CLEAR     67  64  90 CALM      29.89R FOG
SOMERVILLE     CLEAR     65  62  90 CALM      29.88R FOG
ALLAIRE*       CLEAR     68  63  83 NW6       29.88R
TOMS RIVER*    CLEAR     66  63  88 CALM      29.88S

$$
PAZ043-044-047-054-055-060>062-066>071-031200-
EASTERN PENNSYLVANIA

CITY           SKY/WX    TMP DP  RH WIND       PRES   REMARKS
PHILADELPHIA   PTCLDY    77  64  64 CALM      29.89S
NORTH PHILA    PTCLDY    72  63  73 CALM      29.90R HAZE
BLUE BELL        N/A     64  64 100 CALM      29.90R
DOYLESTOWN     CLEAR     66  64  93 CALM      29.90R
QUAKERTOWN*    CLEAR     63  63 100 CALM      29.92S
POTTSTOWN      CLEAR     67  65  93 CALM      29.92S FOG
LANCASTER      CLEAR     67  65  93 W3        29.93R FOG
COATESVILLE    PTCLDY    68  68 100 NW3       29.93S FOG
READING        CLEAR     68  64  87 CALM      29.91R
ALLENTOWN      CLEAR     66  63  90 CALM      29.91R FOG
MOUNT POCONO   CLEAR     67  64  90 NW3       29.98R FOG
HAZLETON       FOG       61  61 100 CALM      30.00S VSB 1/4
WILKES BARRE   CLEAR     65  61  87 SE3       29.95R FOG

$$
DEZALL-MDZ008-012-015-019-020-031200-
DELAWARE AND EASTERN MARYLAND

CITY           SKY/WX    TMP DP  RH WIND       PRES   REMARKS
WILMINGTON     MOCLDY    71  66  84 N3        29.90R HAZE
DOVER          CLEAR     71  71 100 W5        29.88R
GEORGETOWN     CLEAR     71  70  96 NW3       29.90R FOG
EASTON         PTCLDY    70  70 100 CALM      29.93R FOG
ABERDEEN       PTCLDY    70  68  94 CALM      29.91S
PATUXENT       CLEAR     71  66  84 W7        29.90R
OCEAN CITY     CLEAR     72  69  90 NW6       29.89R
WALLOPS ISLAND CLEAR     73  72  96 W6        29.90R
CAMBRIDGE      CLEAR     70  66  88 CALM      29.89S
SALISBURY      CLEAR     69  69 100 CALM      29.89R FOG

$$
PAZ001-021-NYZ056-072-MDZ011-DCZ001-031200-
OTHER NEARBY LOCATIONS

CITY           SKY/WX    TMP DP  RH WIND       PRES   REMARKS
HARRISBURG     PTCLDY    72  66  81 NW8       29.91S HAZE
STATE COLLEGE  CLEAR     64  64 100 CALM      29.98R
WILLIAMSPORT   CLOUDY    68  65  90 N3        29.94R FOG
BINGHAMTON     CLEAR     66  65  96 W3        29.97R FOG
NEW YORK CITY  CLEAR     75  64  68 CALM      29.90R HAZE
BALTIMORE      PTCLDY    69  67  93 NW3       29.90R
WASHINGTON DC  PTCLDY    75  66  73 N7        29.91R

$$


USA.gov is the U.S. government's official web portal to all federal, state and local government web resources and services.